Location: Gwatt
(46.7204°N, 7.6223°E)
Time: 15:02:13
(UTC+00:00)

A-11 Canister half - All Passes

Search period start: 23 January 2021 00:00
Search period end: 02 February 2021 00:00
Orbit: 1517 x 1683 km, 47.2° (Epoch: 22 January)

Date Brightness Start Highest point End Pass type
(mag) Time Alt. Az. Time Alt. Az. Time Alt. Az.
23 Jan - 01:58:39 10° WNW 02:07:32 54° SSW 02:16:33 10° SE visible
23 Jan - 04:04:58 10° W 04:10:50 19° SW 04:16:46 10° SSW visible
23 Jan - 17:24:10 10° SSE 17:27:47 13° ESE 17:31:22 10° E visible
23 Jan - 19:22:00 10° SSW 19:30:46 44° SE 19:39:21 10° ENE visible
23 Jan - 21:25:39 10° WSW 21:35:03 84° SSE 21:44:20 10° ENE visible
23 Jan - 23:30:45 10° W 23:40:05 89° N 23:49:25 10° E night (unlit)
24 Jan - 01:35:43 10° WNW 01:44:41 57° SSW 01:53:43 10° SE visible
24 Jan - 03:41:51 10° W 03:48:02 20° SW 03:54:19 10° S visible
24 Jan - 17:02:17 10° SE 17:05:00 11° ESE 17:07:42 10° ESE visible
24 Jan - 18:59:14 10° SSW 19:07:55 42° SE 19:16:26 10° ENE visible
24 Jan - 21:02:44 10° WSW 21:12:09 82° SSE 21:21:26 10° ENE visible
24 Jan - 23:07:49 10° W 23:17:10 89° N 23:26:30 10° E night (unlit)
25 Jan - 01:12:49 10° WNW 01:21:49 59° SSW 01:30:54 10° SE night (unlit)
25 Jan - 03:18:45 10° W 03:25:15 22° SW 03:31:49 10° S visible
25 Jan - 16:41:05 10° SE 16:42:14 10° ESE 16:43:24 10° ESE daylight
25 Jan - 18:36:29 10° SSW 18:45:06 40° SE 18:53:29 10° ENE visible
25 Jan - 20:39:49 10° WSW 20:49:15 80° SSE 20:58:32 10° ENE visible
25 Jan - 22:44:53 10° W 22:54:16 88° N 23:03:35 10° E visible
26 Jan - 00:49:54 10° WNW 00:58:57 61° SSW 01:08:04 10° SE night (unlit)
26 Jan - 02:55:42 10° W 03:02:27 23° SW 03:09:17 10° S visible
26 Jan - 18:13:44 10° SSW 18:22:15 38° SE 18:30:34 10° ENE visible
26 Jan - 20:16:54 10° WSW 20:26:21 79° SSE 20:35:37 10° ENE visible
26 Jan - 22:21:57 10° W 22:31:21 88° N 22:40:40 10° E visible
27 Jan - 00:26:59 10° WNW 00:36:06 64° SSW 00:45:13 10° SE night (unlit)
27 Jan - 02:32:39 10° W 02:39:40 25° SW 02:46:44 10° S visible
27 Jan - 17:51:01 10° SSW 17:59:25 36° SE 18:07:37 10° ENE visible
27 Jan - 19:53:59 10° WSW 20:03:28 77° SSE 20:12:43 10° ENE visible
27 Jan - 21:59:01 10° W 22:08:26 87° N 22:17:44 10° E visible
28 Jan - 00:04:04 10° WNW 00:13:13 66° SSW 00:22:22 10° SE night (unlit)
28 Jan - 02:09:37 10° W 02:16:52 27° SW 02:24:09 10° S night (unlit)
28 Jan - 17:28:18 10° SSW 17:36:34 34° SE 17:44:39 10° ENE visible
28 Jan - 19:31:06 10° WSW 19:40:34 75° SSE 19:49:49 10° ENE visible
28 Jan - 21:36:05 10° W 21:45:31 87° N 21:54:49 10° E visible
28 Jan - 23:41:10 10° WNW 23:50:21 68° SSW 23:59:31 10° SE night (unlit)
29 Jan - 01:46:37 10° W 01:54:03 28° SW 02:01:33 10° S night (unlit)
29 Jan - 17:05:36 10° SSW 17:13:45 32° SE 17:21:41 10° ENE visible
29 Jan - 19:08:11 10° WSW 19:17:41 73° SSE 19:26:55 10° ENE visible
29 Jan - 21:13:08 10° W 21:22:36 87° N 21:31:54 10° E visible
29 Jan - 23:18:14 10° WNW 23:27:28 71° SSW 23:36:39 10° ESE visible
30 Jan - 01:23:37 10° WNW 01:31:15 30° SW 01:38:55 10° S night (unlit)
30 Jan - 16:42:55 10° SSW 16:50:56 31° SE 16:58:43 10° ENE daylight
30 Jan - 18:45:18 10° WSW 18:54:47 71° SSE 19:04:01 10° ENE visible
30 Jan - 20:50:11 10° W 20:59:41 87° N 21:08:59 10° E visible
30 Jan - 22:55:19 10° WNW 23:04:35 73° SSW 23:13:48 10° ESE visible
31 Jan - 01:00:38 10° WNW 01:08:26 32° SW 01:16:16 10° SSE night (unlit)
31 Jan - 16:20:16 10° S 16:28:06 29° SE 16:35:44 10° E daylight
31 Jan - 18:22:24 10° SW 18:31:54 68° SSE 18:41:08 10° ENE visible
31 Jan - 20:27:15 10° W 20:36:46 87° N 20:46:05 10° E visible
31 Jan - 22:32:23 10° WNW 22:41:42 75° SSW 22:50:55 10° ESE visible
01 Feb - 00:37:39 10° WNW 00:45:37 34° SW 00:53:36 10° SSE night (unlit)
01 Feb - 15:57:38 10° S 16:05:17 27° SE 16:12:45 10° E daylight
01 Feb - 17:59:31 10° SW 18:09:00 66° SSE 18:18:13 10° ENE visible
01 Feb - 20:04:18 10° W 20:13:50 87° N 20:23:10 10° E visible
01 Feb - 22:09:28 10° WNW 22:18:49 77° SSW 22:28:03 10° ESE visible
